Year,Month,Day,Hour,Minute,Value (Times are PST for temperature in C)
2015,06,27,00,00,19.10
2015,06,27,00,01,19.20
2015,06,27,00,02,19.30
2015,06,27,00,03,19.40
2015,06,27,00,04,19.60
2015,06,27,00,05,19.70
2015,06,27,00,06,19.80
2015,06,27,00,07,19.90
2015,06,27,00,08,20.00
2015,06,27,00,09,20.00
2015,06,27,00,10,20.10
2015,06,27,00,11,20.20
2015,06,27,00,12,20.30
2015,06,27,00,13,20.30
2015,06,27,00,14,20.30
2015,06,27,00,15,20.40
2015,06,27,00,16,20.40
2015,06,27,00,17,20.40
2015,06,27,00,18,20.50
2015,06,27,00,19,20.60
2015,06,27,00,20,20.60
2015,06,27,00,21,20.60
2015,06,27,00,22,20.60
2015,06,27,00,23,20.70
2015,06,27,00,24,20.70
2015,06,27,00,25,20.70
2015,06,27,00,26,20.70
2015,06,27,00,27,20.70
2015,06,27,00,28,20.70
2015,06,27,00,29,20.70
2015,06,27,00,30,20.70
2015,06,27,00,31,20.70
2015,06,27,00,32,20.70
2015,06,27,00,33,20.60
2015,06,27,00,34,20.60
2015,06,27,00,35,20.60
2015,06,27,00,36,20.60
2015,06,27,00,37,20.60
2015,06,27,00,38,20.60
2015,06,27,00,39,20.50
2015,06,27,00,40,20.50
2015,06,27,00,41,20.50
2015,06,27,00,42,20.40
2015,06,27,00,43,20.40
2015,06,27,00,44,20.40
2015,06,27,00,45,20.40
2015,06,27,00,46,20.40
2015,06,27,00,47,20.30
2015,06,27,00,48,20.30
2015,06,27,00,49,20.30
2015,06,27,00,50,20.30
2015,06,27,00,51,20.30
2015,06,27,00,52,20.30
2015,06,27,00,53,20.30
2015,06,27,00,54,20.30
2015,06,27,00,55,20.30
2015,06,27,00,56,20.20
2015,06,27,00,57,20.20
2015,06,27,00,58,20.20
2015,06,27,00,59,20.20
2015,06,27,01,00,20.10
2015,06,27,01,01,20.10
2015,06,27,01,02,20.10
2015,06,27,01,03,20.00
2015,06,27,01,04,20.00
2015,06,27,01,05,20.00
2015,06,27,01,06,20.00
2015,06,27,01,07,19.90
2015,06,27,01,08,19.90
2015,06,27,01,09,19.90
2015,06,27,01,10,19.90
2015,06,27,01,11,19.90
2015,06,27,01,12,19.90
2015,06,27,01,13,19.80
2015,06,27,01,14,19.80
2015,06,27,01,15,19.80
2015,06,27,01,16,19.80
2015,06,27,01,17,19.80
2015,06,27,01,18,19.80
2015,06,27,01,19,19.80
2015,06,27,01,20,19.70
2015,06,27,01,21,19.70
2015,06,27,01,22,19.70
2015,06,27,01,23,19.70
2015,06,27,01,24,19.70
2015,06,27,01,25,19.70
2015,06,27,01,26,19.70
2015,06,27,01,27,19.70
2015,06,27,01,28,19.70
2015,06,27,01,29,19.70
2015,06,27,01,30,19.60
2015,06,27,01,31,19.60
2015,06,27,01,32,19.60
2015,06,27,01,33,19.60
2015,06,27,01,34,19.60
2015,06,27,01,35,19.60
2015,06,27,01,36,19.60
2015,06,27,01,37,19.60
2015,06,27,01,38,19.60
2015,06,27,01,39,19.60
2015,06,27,01,40,19.60
2015,06,27,01,41,19.50
2015,06,27,01,42,19.50
2015,06,27,01,43,19.50
2015,06,27,01,44,19.50
2015,06,27,01,49,19.40
2015,06,27,01,50,19.40
2015,06,27,01,51,19.40
2015,06,27,01,52,19.40
2015,06,27,01,53,19.40
2015,06,27,01,54,19.40
2015,06,27,01,55,19.40
2015,06,27,01,56,19.30
2015,06,27,01,57,19.30
2015,06,27,01,58,19.30
2015,06,27,01,59,19.30
2015,06,27,02,00,19.30
2015,06,27,02,01,19.30
2015,06,27,02,02,19.30
2015,06,27,02,03,19.30
2015,06,27,02,04,19.30
2015,06,27,02,05,19.30
2015,06,27,02,06,19.30
2015,06,27,02,07,19.30
2015,06,27,02,08,19.30
2015,06,27,02,09,19.30
2015,06,27,02,10,19.30
2015,06,27,02,11,19.30
2015,06,27,02,12,19.30
2015,06,27,02,13,19.20
2015,06,27,02,14,19.20
2015,06,27,02,15,19.20
2015,06,27,02,16,19.20
2015,06,27,02,17,19.20
2015,06,27,02,18,19.20
2015,06,27,02,19,19.20
2015,06,27,02,20,19.20
2015,06,27,02,21,19.20
2015,06,27,02,22,19.10
2015,06,27,02,23,19.10
2015,06,27,02,24,19.10
2015,06,27,02,25,19.10
2015,06,27,02,26,19.10
2015,06,27,02,27,19.10
2015,06,27,02,28,19.10
2015,06,27,02,29,19.10
2015,06,27,02,30,19.10
2015,06,27,02,31,19.00
2015,06,27,02,32,19.00
2015,06,27,02,33,19.00
2015,06,27,02,34,18.90
2015,06,27,02,35,18.90
2015,06,27,02,36,18.90
2015,06,27,02,37,18.90
2015,06,27,02,38,18.90
2015,06,27,02,39,18.90
2015,06,27,02,40,18.90
2015,06,27,02,41,18.90
2015,06,27,02,42,18.80
2015,06,27,02,43,18.80
2015,06,27,02,44,18.80
2015,06,27,02,45,18.80
2015,06,27,02,46,18.80
2015,06,27,02,47,18.80
2015,06,27,02,48,18.80
2015,06,27,02,49,18.80
2015,06,27,02,50,18.80
2015,06,27,02,51,18.80
2015,06,27,02,52,18.80
2015,06,27,02,53,18.80
2015,06,27,02,54,18.80
2015,06,27,02,55,18.80
2015,06,27,02,56,18.80
2015,06,27,02,57,18.80
2015,06,27,02,58,18.70
2015,06,27,02,59,18.70
2015,06,27,03,00,18.70
2015,06,27,03,01,18.70
2015,06,27,03,02,18.70
2015,06,27,03,03,18.60
2015,06,27,03,04,18.60
2015,06,27,03,05,18.60
2015,06,27,03,06,18.60
2015,06,27,03,07,18.60
2015,06,27,03,08,18.60
2015,06,27,03,09,18.60
2015,06,27,03,10,18.60
2015,06,27,03,11,18.50
2015,06,27,03,12,18.50
2015,06,27,03,13,18.50
2015,06,27,03,14,18.50
2015,06,27,03,15,18.50
2015,06,27,03,16,18.50
2015,06,27,03,17,18.50
2015,06,27,03,18,18.50
2015,06,27,03,19,18.50
2015,06,27,03,20,18.50
2015,06,27,03,21,18.50
2015,06,27,03,22,18.50
2015,06,27,03,23,18.50
2015,06,27,03,24,18.50
2015,06,27,03,25,18.40
2015,06,27,03,26,18.40
2015,06,27,03,27,18.40
2015,06,27,03,28,18.40
2015,06,27,03,29,18.40
2015,06,27,03,30,18.40
2015,06,27,03,31,18.40
2015,06,27,03,32,18.30
2015,06,27,03,33,18.30
2015,06,27,03,34,18.30
2015,06,27,03,35,18.30
2015,06,27,03,36,18.30
2015,06,27,03,37,18.30
2015,06,27,03,38,18.30
2015,06,27,03,39,18.30
2015,06,27,03,40,18.30
2015,06,27,03,41,18.30
2015,06,27,03,42,18.30
2015,06,27,03,43,18.30
2015,06,27,03,44,18.30
2015,06,27,03,45,18.30
2015,06,27,03,46,18.30
2015,06,27,03,47,18.30
2015,06,27,03,48,18.30
2015,06,27,03,49,18.20
2015,06,27,03,50,18.20
2015,06,27,03,51,18.20
2015,06,27,03,52,18.20
2015,06,27,03,53,18.20
2015,06,27,03,54,18.20
2015,06,27,03,55,18.20
2015,06,27,03,56,18.20
2015,06,27,03,57,18.10
2015,06,27,03,58,18.10
2015,06,27,03,59,18.10
2015,06,27,04,00,18.10
2015,06,27,04,01,18.00
2015,06,27,04,02,18.00
2015,06,27,04,03,18.00
2015,06,27,04,04,18.00
2015,06,27,04,05,17.90
2015,06,27,04,06,17.90
2015,06,27,04,07,17.90
2015,06,27,04,08,17.90
2015,06,27,04,09,17.90
2015,06,27,04,10,17.90
2015,06,27,04,11,17.90
2015,06,27,04,12,17.90
2015,06,27,04,13,17.80
2015,06,27,04,14,17.80
2015,06,27,04,15,17.80
2015,06,27,04,16,17.80
2015,06,27,04,17,17.80
2015,06,27,04,18,17.80
2015,06,27,04,19,17.80
2015,06,27,04,20,17.80
2015,06,27,04,21,17.80
2015,06,27,04,22,17.80
2015,06,27,04,23,17.80
2015,06,27,04,24,17.80
2015,06,27,04,25,17.80
2015,06,27,04,26,17.80
2015,06,27,04,27,17.80
2015,06,27,04,28,17.70
2015,06,27,04,29,17.70
2015,06,27,04,30,17.70
2015,06,27,04,31,17.70
2015,06,27,04,32,17.70
2015,06,27,04,33,17.70
2015,06,27,04,34,17.70
2015,06,27,04,35,17.70
2015,06,27,04,36,17.70
2015,06,27,04,37,17.70
2015,06,27,04,38,17.70
2015,06,27,04,39,17.70
2015,06,27,04,40,17.70
2015,06,27,04,41,17.70
2015,06,27,04,42,17.70
2015,06,27,04,43,17.70
2015,06,27,04,44,17.70
2015,06,27,04,45,17.70
2015,06,27,04,46,17.60
2015,06,27,04,47,17.60
2015,06,27,04,48,17.60
2015,06,27,04,49,17.60
2015,06,27,04,50,17.60
2015,06,27,04,51,17.60
2015,06,27,04,52,17.60
2015,06,27,04,53,17.50
2015,06,27,04,54,17.50
2015,06,27,04,55,17.50
2015,06,27,04,56,17.50
2015,06,27,04,57,17.50
2015,06,27,04,58,17.40
2015,06,27,04,59,17.40
2015,06,27,05,00,17.40
2015,06,27,05,01,17.40
2015,06,27,05,02,17.40
2015,06,27,05,03,17.40
2015,06,27,05,04,17.40
2015,06,27,05,05,17.40
2015,06,27,05,06,17.40
2015,06,27,05,07,17.40
2015,06,27,05,08,17.40
2015,06,27,05,09,17.30
2015,06,27,05,10,17.30
2015,06,27,05,11,17.30
2015,06,27,05,12,17.30
2015,06,27,05,13,17.30
2015,06,27,05,14,17.30
2015,06,27,05,15,17.30
2015,06,27,05,16,17.30
2015,06,27,05,17,17.30
2015,06,27,05,18,17.30
2015,06,27,05,19,17.30
2015,06,27,05,20,17.30
2015,06,27,05,21,17.30
2015,06,27,05,22,17.30
2015,06,27,05,23,17.30
2015,06,27,05,24,17.30
2015,06,27,05,25,17.30
2015,06,27,05,26,17.30
2015,06,27,05,27,17.30
2015,06,27,05,28,17.30
2015,06,27,05,29,17.30
2015,06,27,05,30,17.30
2015,06,27,05,31,17.30
2015,06,27,05,32,17.30
2015,06,27,05,33,17.30
2015,06,27,05,34,17.30
2015,06,27,05,35,17.30
2015,06,27,05,36,17.30
2015,06,27,05,37,17.20
2015,06,27,05,38,17.20
2015,06,27,05,39,17.20
2015,06,27,05,40,17.20
2015,06,27,05,41,17.20
2015,06,27,05,42,17.20
2015,06,27,05,43,17.20
2015,06,27,05,44,17.20
2015,06,27,05,45,17.20
2015,06,27,05,46,17.20
2015,06,27,05,47,17.20
2015,06,27,05,48,17.10
2015,06,27,05,49,17.10
2015,06,27,05,50,17.10
2015,06,27,05,51,17.10
2015,06,27,05,52,17.10
2015,06,27,05,53,17.10
2015,06,27,05,54,17.10
2015,06,27,05,55,17.10
2015,06,27,05,56,17.10
2015,06,27,05,57,17.10
2015,06,27,05,58,17.10
2015,06,27,05,59,17.10
2015,06,27,06,00,17.10
2015,06,27,06,01,17.10
2015,06,27,06,02,17.10
2015,06,27,06,03,17.10
2015,06,27,06,04,17.10
2015,06,27,06,05,17.10
2015,06,27,06,06,17.10
2015,06,27,06,07,17.10
2015,06,27,06,08,17.10
2015,06,27,06,09,17.10
2015,06,27,06,10,17.10
2015,06,27,06,11,17.10
2015,06,27,06,12,17.10
2015,06,27,06,13,17.10
2015,06,27,06,14,17.10
2015,06,27,06,15,17.10
2015,06,27,06,16,17.10
2015,06,27,06,17,17.20
2015,06,27,06,18,17.20
2015,06,27,06,19,17.20
2015,06,27,06,20,17.20
2015,06,27,06,21,17.20
2015,06,27,06,22,17.20
2015,06,27,06,23,17.20
2015,06,27,06,24,17.20
2015,06,27,06,25,17.30
2015,06,27,06,26,17.30
2015,06,27,06,27,17.30
2015,06,27,06,28,17.30
2015,06,27,06,29,17.30
2015,06,27,06,30,17.30
2015,06,27,06,31,17.30
2015,06,27,06,32,17.30
2015,06,27,06,33,17.30
2015,06,27,06,34,17.30
2015,06,27,06,35,17.30
2015,06,27,06,36,17.30
2015,06,27,06,37,17.30
2015,06,27,06,38,17.40
2015,06,27,06,39,17.40
2015,06,27,06,40,17.40
2015,06,27,06,41,17.40
2015,06,27,06,42,17.40
2015,06,27,06,43,17.40
2015,06,27,06,44,17.40
2015,06,27,06,45,17.40
2015,06,27,06,46,17.40
2015,06,27,06,47,17.40
2015,06,27,06,48,17.40
2015,06,27,06,49,17.40
2015,06,27,06,50,17.40
2015,06,27,06,51,17.40
2015,06,27,06,52,17.40
2015,06,27,06,53,17.40
2015,06,27,06,54,17.40
2015,06,27,06,55,17.40
2015,06,27,06,56,17.40
2015,06,27,06,57,17.40
2015,06,27,06,58,17.40
2015,06,27,06,59,17.40
2015,06,27,07,00,17.30
2015,06,27,07,01,17.30
2015,06,27,07,02,17.30
2015,06,27,07,03,17.30
2015,06,27,07,04,17.30
2015,06,27,07,05,17.30
2015,06,27,07,06,17.30
2015,06,27,07,07,17.30
2015,06,27,07,08,17.30
2015,06,27,07,09,17.30
2015,06,27,07,10,17.30
2015,06,27,07,11,17.30
2015,06,27,07,12,17.30
2015,06,27,07,13,17.30
2015,06,27,07,14,17.30
2015,06,27,07,15,17.40
2015,06,27,07,16,17.40
2015,06,27,07,17,17.40
2015,06,27,07,18,17.40
2015,06,27,07,19,17.40
2015,06,27,07,20,17.40
2015,06,27,07,21,17.40
2015,06,27,07,22,17.40
2015,06,27,07,23,17.50
2015,06,27,07,24,17.50
2015,06,27,07,25,17.50
2015,06,27,07,26,17.50
2015,06,27,07,27,17.50
2015,06,27,07,28,17.50
2015,06,27,07,29,17.60
2015,06,27,07,30,17.60
2015,06,27,07,31,17.60
2015,06,27,07,32,17.60
2015,06,27,07,33,17.60
2015,06,27,07,34,17.60
2015,06,27,07,35,17.70
2015,06,27,07,36,17.70
2015,06,27,07,37,17.70
2015,06,27,07,38,17.70
2015,06,27,07,39,17.70
2015,06,27,07,40,17.80
2015,06,27,07,41,17.80
2015,06,27,07,42,17.80
2015,06,27,07,43,17.80
2015,06,27,07,44,17.80
2015,06,27,07,45,17.80
2015,06,27,07,46,17.90
2015,06,27,07,47,17.90
2015,06,27,07,48,17.90
2015,06,27,07,49,17.90
2015,06,27,07,50,17.90
2015,06,27,07,51,17.90
2015,06,27,07,52,17.90
2015,06,27,07,53,17.90
2015,06,27,07,54,17.90
2015,06,27,07,55,17.90
2015,06,27,07,56,17.90
2015,06,27,07,57,17.90
2015,06,27,07,58,17.90
2015,06,27,07,59,17.90
2015,06,27,08,00,17.90
2015,06,27,08,01,17.90
2015,06,27,08,02,17.90
2015,06,27,08,03,17.90
2015,06,27,08,04,17.90
2015,06,27,08,05,17.90
2015,06,27,08,06,17.90
2015,06,27,08,07,17.90
2015,06,27,08,08,17.90
2015,06,27,08,09,17.90
2015,06,27,08,10,17.90
2015,06,27,08,11,17.90
2015,06,27,08,12,17.90
2015,06,27,08,13,17.90
2015,06,27,08,14,17.90
2015,06,27,08,15,17.90
2015,06,27,08,16,17.90
2015,06,27,08,17,18.00
2015,06,27,08,18,18.00
2015,06,27,08,19,18.10
2015,06,27,08,20,18.10
2015,06,27,08,21,18.10
2015,06,27,08,22,18.10
2015,06,27,08,23,18.10
2015,06,27,08,24,18.10
2015,06,27,08,25,18.10
2015,06,27,08,26,18.10
2015,06,27,08,27,18.10
2015,06,27,08,28,18.20
2015,06,27,08,29,18.20
2015,06,27,08,30,18.20
2015,06,27,08,31,18.20
2015,06,27,08,32,18.20
2015,06,27,08,33,18.20
2015,06,27,08,34,18.30
2015,06,27,08,35,18.30
2015,06,27,08,36,18.30
2015,06,27,08,37,18.20
2015,06,27,08,38,18.20
2015,06,27,08,39,18.20
2015,06,27,08,40,18.20
2015,06,27,08,41,18.30
2015,06,27,08,42,18.30
2015,06,27,08,43,18.30
2015,06,27,08,44,18.30
2015,06,27,08,45,18.30
2015,06,27,08,46,18.30
2015,06,27,08,47,18.30
2015,06,27,08,48,18.30
2015,06,27,08,49,18.30
2015,06,27,08,50,18.40
2015,06,27,08,51,18.40
2015,06,27,08,52,18.40
2015,06,27,08,53,18.40
2015,06,27,08,54,18.50
2015,06,27,08,55,18.50
2015,06,27,08,56,18.50
2015,06,27,08,57,18.60
2015,06,27,08,58,18.60
2015,06,27,08,59,18.60
2015,06,27,09,00,18.70
2015,06,27,09,01,18.70
2015,06,27,09,02,18.80
2015,06,27,09,03,18.80
2015,06,27,09,04,18.80
2015,06,27,09,05,18.80
2015,06,27,09,06,18.90
2015,06,27,09,07,18.90
2015,06,27,09,08,18.90
2015,06,27,09,09,18.90
2015,06,27,09,10,18.90
2015,06,27,09,11,18.90
2015,06,27,09,12,18.90
2015,06,27,09,13,18.90
2015,06,27,09,14,18.90
2015,06,27,09,15,19.00
2015,06,27,09,16,19.00
2015,06,27,09,17,19.10
2015,06,27,09,18,19.10
2015,06,27,09,19,19.10
2015,06,27,09,20,19.10
2015,06,27,09,21,19.10
2015,06,27,09,22,19.10
2015,06,27,09,23,19.10
2015,06,27,09,24,19.20
2015,06,27,09,25,19.20
2015,06,27,09,26,19.30
2015,06,27,09,27,19.30
2015,06,27,09,28,19.30
2015,06,27,09,29,19.30
2015,06,27,09,30,19.40
2015,06,27,09,31,19.40
2015,06,27,09,32,19.50
2015,06,27,09,33,19.50
2015,06,27,09,34,19.60
2015,06,27,09,35,19.60
2015,06,27,09,36,19.70
2015,06,27,09,37,19.70
2015,06,27,09,38,19.70
2015,06,27,09,39,19.80
2015,06,27,09,40,19.80
2015,06,27,09,41,19.80
2015,06,27,09,42,19.90
2015,06,27,09,43,19.90
2015,06,27,09,44,20.00
2015,06,27,09,45,20.00
2015,06,27,09,46,20.10
2015,06,27,09,47,20.20
2015,06,27,09,48,20.20
2015,06,27,09,49,20.30
2015,06,27,09,50,20.30
2015,06,27,09,51,20.40
2015,06,27,09,52,20.40
2015,06,27,09,53,20.50
2015,06,27,09,54,20.60
2015,06,27,09,55,20.70
2015,06,27,09,56,20.70
2015,06,27,09,57,20.80
2015,06,27,09,58,20.90
2015,06,27,09,59,21.00
2015,06,27,10,00,21.10
2015,06,27,10,01,21.20
2015,06,27,10,02,21.30
2015,06,27,10,03,21.20
2015,06,27,10,04,21.20
2015,06,27,10,05,21.20
2015,06,27,10,06,21.10
2015,06,27,10,07,21.10
2015,06,27,10,08,21.10
2015,06,27,10,09,21.10
2015,06,27,10,10,21.10
2015,06,27,10,11,21.20
2015,06,27,10,12,21.20
2015,06,27,10,13,21.30
2015,06,27,10,14,21.40
2015,06,27,10,15,21.40
2015,06,27,10,16,21.40
2015,06,27,10,17,21.40
2015,06,27,10,18,21.40
2015,06,27,10,19,21.30
2015,06,27,10,20,21.30
2015,06,27,10,21,21.30
2015,06,27,10,22,21.30
2015,06,27,10,23,21.20
2015,06,27,10,24,21.20
2015,06,27,10,25,21.20
2015,06,27,10,26,21.20
2015,06,27,10,27,21.20
2015,06,27,10,28,21.30
2015,06,27,10,29,21.30
2015,06,27,10,30,21.40
2015,06,27,10,31,21.40
2015,06,27,10,32,21.40
2015,06,27,10,33,21.30
2015,06,27,10,34,21.30
2015,06,27,10,35,21.30
2015,06,27,10,36,21.30
2015,06,27,10,37,21.40
2015,06,27,10,38,21.40
2015,06,27,10,39,21.50
2015,06,27,10,40,21.60
2015,06,27,10,41,21.70
2015,06,27,10,42,21.80
2015,06,27,10,43,21.80
2015,06,27,10,44,21.80
2015,06,27,10,45,21.80
2015,06,27,10,46,21.80
2015,06,27,10,47,21.90
2015,06,27,10,48,21.90
2015,06,27,10,49,21.90
2015,06,27,10,50,22.00
2015,06,27,10,51,22.00
2015,06,27,10,52,22.00
2015,06,27,10,53,22.00
2015,06,27,10,54,22.10
2015,06,27,10,55,22.10
2015,06,27,10,56,22.00
2015,06,27,10,57,22.00
2015,06,27,10,58,22.00
2015,06,27,10,59,22.10
2015,06,27,11,00,22.10
2015,06,27,11,01,22.00
2015,06,27,11,02,22.00
2015,06,27,11,03,22.10
2015,06,27,11,04,22.20
2015,06,27,11,05,22.30
2015,06,27,11,06,22.30
2015,06,27,11,07,22.40
2015,06,27,11,08,22.50
2015,06,27,11,09,22.60
2015,06,27,11,10,22.50
2015,06,27,11,11,22.50
2015,06,27,11,12,22.50
2015,06,27,11,13,22.50
2015,06,27,11,14,22.50
2015,06,27,11,15,22.40
2015,06,27,11,16,22.40
2015,06,27,11,17,22.40
2015,06,27,11,18,22.40
2015,06,27,11,19,22.40
2015,06,27,11,20,22.40
2015,06,27,11,21,22.40
2015,06,27,11,22,22.40
2015,06,27,11,23,22.40
2015,06,27,11,24,22.30
2015,06,27,11,25,22.30
2015,06,27,11,26,22.20
2015,06,27,11,27,22.20
2015,06,27,11,28,22.20
2015,06,27,11,29,22.30
2015,06,27,11,30,22.30
2015,06,27,11,31,22.30
2015,06,27,11,32,22.40
2015,06,27,11,33,22.40
2015,06,27,11,34,22.40
2015,06,27,11,35,22.40
2015,06,27,11,36,22.40
2015,06,27,11,37,22.50
2015,06,27,11,38,22.60
2015,06,27,11,39,22.60
2015,06,27,11,40,22.70
2015,06,27,11,41,22.80
2015,06,27,11,42,22.90
2015,06,27,11,43,23.00
2015,06,27,11,44,23.10
2015,06,27,11,45,23.10
2015,06,27,11,46,23.10
2015,06,27,11,47,23.10
2015,06,27,11,48,23.20
2015,06,27,11,49,23.10
2015,06,27,11,50,23.20
2015,06,27,11,51,23.30
2015,06,27,11,52,23.40
2015,06,27,11,53,23.50
2015,06,27,11,54,23.60
2015,06,27,11,55,23.70
2015,06,27,11,56,23.70
2015,06,27,11,57,23.80
2015,06,27,11,58,23.80
2015,06,27,11,59,23.90
2015,06,27,12,00,24.00
2015,06,27,12,01,24.00
2015,06,27,12,02,24.10
2015,06,27,12,03,24.20
2015,06,27,12,04,24.20
2015,06,27,12,05,24.20
2015,06,27,12,06,24.30
2015,06,27,12,07,24.30
2015,06,27,12,08,24.40
2015,06,27,12,09,24.50
2015,06,27,12,10,24.50
2015,06,27,12,11,24.50
2015,06,27,12,12,24.60
2015,06,27,12,13,24.70
2015,06,27,12,14,24.70
2015,06,27,12,15,24.70
2015,06,27,12,16,24.80
2015,06,27,12,17,24.90
2015,06,27,12,18,25.00
2015,06,27,12,19,25.10
2015,06,27,12,20,25.10
2015,06,27,12,21,25.20
2015,06,27,12,22,25.20
2015,06,27,12,23,25.30
2015,06,27,12,24,25.40
2015,06,27,12,25,25.50
2015,06,27,12,26,25.60
2015,06,27,12,27,25.70
2015,06,27,12,28,25.80
2015,06,27,12,29,25.90
2015,06,27,12,30,25.90
2015,06,27,12,31,25.80
2015,06,27,12,32,25.80
2015,06,27,12,33,25.70
2015,06,27,12,34,25.70
2015,06,27,12,35,25.60
2015,06,27,12,36,25.50
2015,06,27,12,37,25.40
2015,06,27,12,38,25.40
2015,06,27,12,39,25.40
2015,06,27,12,40,25.30
2015,06,27,12,41,25.40
2015,06,27,12,42,25.40
2015,06,27,12,43,25.50
2015,06,27,12,44,25.50
2015,06,27,12,45,25.50
2015,06,27,12,46,25.60
2015,06,27,12,47,25.70
2015,06,27,12,48,25.70
2015,06,27,12,49,25.70
2015,06,27,12,50,25.70
2015,06,27,12,51,25.60
2015,06,27,12,52,25.60
2015,06,27,12,53,25.60
2015,06,27,12,54,25.60
2015,06,27,12,55,25.70
2015,06,27,12,56,25.80
2015,06,27,12,57,25.90
2015,06,27,12,58,25.90
2015,06,27,12,59,25.90
2015,06,27,13,00,25.90
2015,06,27,13,01,25.90
2015,06,27,13,02,25.90
2015,06,27,13,03,25.80
2015,06,27,13,04,25.80
2015,06,27,13,05,25.70
2015,06,27,13,06,25.80
2015,06,27,13,07,25.90
2015,06,27,13,08,25.90
2015,06,27,13,09,26.00
2015,06,27,13,10,26.10
2015,06,27,13,11,26.20
2015,06,27,13,12,26.20
2015,06,27,13,13,26.30
2015,06,27,13,14,26.30
2015,06,27,13,15,26.30
2015,06,27,13,16,26.30
2015,06,27,13,17,26.20
2015,06,27,13,18,26.10
2015,06,27,13,19,26.10
2015,06,27,13,20,26.00
2015,06,27,13,21,26.00
2015,06,27,13,22,25.90
2015,06,27,13,23,25.90
2015,06,27,13,24,25.90
2015,06,27,13,25,25.80
2015,06,27,13,26,25.70
2015,06,27,13,27,25.60
2015,06,27,13,28,25.60
2015,06,27,13,29,25.60
2015,06,27,13,30,25.60
2015,06,27,13,31,25.60
2015,06,27,13,32,25.60
2015,06,27,13,33,25.70
2015,06,27,13,34,25.70
2015,06,27,13,35,25.90
2015,06,27,13,36,25.90
2015,06,27,13,37,26.00
2015,06,27,13,38,26.10
2015,06,27,13,39,26.20
2015,06,27,13,40,26.30
2015,06,27,13,41,26.40
2015,06,27,13,42,26.50
2015,06,27,13,43,26.60
2015,06,27,13,44,26.60
2015,06,27,13,45,26.60
2015,06,27,13,46,26.70
2015,06,27,13,47,26.70
2015,06,27,13,48,26.80
2015,06,27,13,49,26.70
2015,06,27,13,50,26.80
2015,06,27,13,51,26.80
2015,06,27,13,52,26.90
2015,06,27,13,53,26.90
2015,06,27,13,54,26.90
2015,06,27,13,55,27.00
2015,06,27,13,56,27.10
2015,06,27,13,57,27.10
2015,06,27,13,58,27.10
2015,06,27,13,59,27.10
2015,06,27,14,00,27.20
2015,06,27,14,01,27.20
2015,06,27,14,02,27.10
2015,06,27,14,03,27.10
2015,06,27,14,04,27.00
2015,06,27,14,05,27.00
2015,06,27,14,06,27.00
2015,06,27,14,07,27.00
2015,06,27,14,08,27.10
2015,06,27,14,09,27.10
2015,06,27,14,10,27.10
2015,06,27,14,11,27.10
2015,06,27,14,12,27.10
2015,06,27,14,13,27.10
2015,06,27,14,14,27.20
2015,06,27,14,15,27.20
2015,06,27,14,16,27.30
2015,06,27,14,17,27.30
2015,06,27,14,18,27.30
2015,06,27,14,19,27.30
2015,06,27,14,20,27.30
2015,06,27,14,21,27.30
2015,06,27,14,22,27.30
2015,06,27,14,23,27.30
2015,06,27,14,24,27.30
2015,06,27,14,25,27.40
2015,06,27,14,26,27.40
2015,06,27,14,27,27.50
2015,06,27,14,28,27.50
2015,06,27,14,29,27.60
2015,06,27,14,30,27.60
2015,06,27,14,31,27.60
2015,06,27,14,32,27.60
2015,06,27,14,33,27.60
2015,06,27,14,34,27.70
2015,06,27,14,35,27.80
2015,06,27,14,36,27.80
2015,06,27,14,37,27.80
2015,06,27,14,38,27.80
2015,06,27,14,39,27.90
2015,06,27,14,40,28.00
2015,06,27,14,41,28.00
2015,06,27,14,42,28.00
2015,06,27,14,43,28.00
2015,06,27,14,44,28.10
2015,06,27,14,45,28.20
2015,06,27,14,46,28.20
2015,06,27,14,47,28.30
2015,06,27,14,48,28.40
2015,06,27,14,49,28.50
2015,06,27,14,50,28.60
2015,06,27,14,51,28.70
2015,06,27,14,52,28.70
2015,06,27,14,53,28.80
2015,06,27,14,54,28.80
2015,06,27,14,55,28.80
2015,06,27,14,56,28.80
2015,06,27,14,57,28.80
2015,06,27,14,58,28.80
2015,06,27,14,59,28.80
2015,06,27,15,00,28.80
2015,06,27,15,01,28.70
2015,06,27,15,02,28.70
2015,06,27,15,03,28.70
2015,06,27,15,04,28.60
2015,06,27,15,05,28.50
2015,06,27,15,06,28.40
2015,06,27,15,07,28.30
2015,06,27,15,08,28.30
2015,06,27,15,09,28.20
2015,06,27,15,10,28.10
2015,06,27,15,11,28.00
2015,06,27,15,12,28.00
2015,06,27,15,13,27.90
2015,06,27,15,14,27.90
2015,06,27,15,15,27.90
2015,06,27,15,16,27.90
2015,06,27,15,17,27.90
2015,06,27,15,18,27.90
2015,06,27,15,19,28.00
2015,06,27,15,20,28.10
2015,06,27,15,21,28.10
2015,06,27,15,22,28.10
2015,06,27,15,23,28.10
2015,06,27,15,24,28.10
2015,06,27,15,25,28.10
2015,06,27,15,26,28.10
2015,06,27,15,27,28.20
2015,06,27,15,28,28.20
2015,06,27,15,29,28.20
2015,06,27,15,30,28.20
2015,06,27,15,31,28.30
2015,06,27,15,32,28.30
2015,06,27,15,33,28.40
2015,06,27,15,34,28.50
2015,06,27,15,35,28.50
2015,06,27,15,36,28.60
2015,06,27,15,37,28.70
2015,06,27,15,38,28.80
2015,06,27,15,39,28.80
2015,06,27,15,40,28.80
2015,06,27,15,41,28.90
2015,06,27,15,42,28.90
2015,06,27,15,43,28.90
2015,06,27,15,44,28.90
2015,06,27,15,45,29.00
2015,06,27,15,46,29.10
2015,06,27,15,47,29.20
2015,06,27,15,48,29.20
2015,06,27,15,49,29.30
2015,06,27,15,50,29.40
2015,06,27,15,51,29.40
2015,06,27,15,52,29.40
2015,06,27,15,53,29.40
2015,06,27,15,54,29.30
2015,06,27,15,55,29.30
2015,06,27,15,56,29.30
2015,06,27,15,57,29.20
2015,06,27,15,58,29.20
2015,06,27,15,59,29.20
2015,06,27,16,00,29.20
2015,06,27,16,01,29.00
2015,06,27,16,02,28.70
2015,06,27,16,03,28.40
2015,06,27,16,04,28.20
2015,06,27,16,05,27.90
2015,06,27,16,06,27.60
2015,06,27,16,07,27.40
2015,06,27,16,08,27.10
2015,06,27,16,09,26.90
2015,06,27,16,10,26.60
2015,06,27,16,11,26.30
2015,06,27,16,12,26.00
2015,06,27,16,13,25.90
2015,06,27,16,14,25.80
2015,06,27,16,15,25.70
2015,06,27,16,16,25.60
2015,06,27,16,17,25.40
2015,06,27,16,18,25.20
2015,06,27,16,19,25.10
2015,06,27,16,20,25.00
2015,06,27,16,21,24.90
2015,06,27,16,22,24.80
2015,06,27,16,23,24.80
2015,06,27,16,24,24.70
2015,06,27,16,25,24.70
2015,06,27,16,26,24.70
2015,06,27,16,27,24.70
2015,06,27,16,28,24.70
2015,06,27,16,29,24.70
2015,06,27,16,30,24.70
2015,06,27,16,31,24.70
2015,06,27,16,32,24.60
2015,06,27,16,33,24.60
2015,06,27,16,34,24.60
2015,06,27,16,35,24.60
2015,06,27,16,36,24.60
2015,06,27,16,37,24.60
2015,06,27,16,38,24.60
2015,06,27,16,39,24.60
2015,06,27,16,40,24.60
2015,06,27,16,41,24.60
2015,06,27,16,42,24.60
2015,06,27,16,43,24.60
2015,06,27,16,44,24.60
2015,06,27,16,45,24.60
2015,06,27,16,46,24.60
2015,06,27,16,47,24.60
2015,06,27,16,48,24.60
2015,06,27,16,49,24.80
2015,06,27,16,50,24.90
2015,06,27,16,51,25.00
2015,06,27,16,52,25.20
2015,06,27,16,53,25.40
2015,06,27,16,54,25.70
2015,06,27,16,55,25.90
2015,06,27,16,56,26.00
2015,06,27,16,57,26.10
2015,06,27,16,58,26.40
2015,06,27,16,59,26.50
2015,06,27,17,00,26.70
2015,06,27,17,01,26.90
2015,06,27,17,02,27.00
2015,06,27,17,03,27.10
2015,06,27,17,04,27.30
2015,06,27,17,05,27.50
2015,06,27,17,06,27.60
2015,06,27,17,07,27.80
2015,06,27,17,08,27.90
2015,06,27,17,09,28.00
2015,06,27,17,10,28.10
2015,06,27,17,11,28.10
2015,06,27,17,12,28.20
2015,06,27,17,13,28.20
2015,06,27,17,14,28.30
2015,06,27,17,15,28.40
2015,06,27,17,16,28.50
2015,06,27,17,17,28.60
2015,06,27,17,18,28.70
2015,06,27,17,19,28.90
2015,06,27,17,20,29.00
2015,06,27,17,21,29.10
2015,06,27,17,22,29.20
2015,06,27,17,23,29.20